COSMOS 2219

Last updated on Wed Jul 02 2025 00:02:14 GMT+0000 (Coordinated Universal Time)

1 22219U 92076A 25182.46583644 .00000349 00000+0 20818-3 0 9995 2 22219 71.0583 183.2157 0019587 227.8796 132.0662 14.14030466682869
UTC large
Height (km)
Speed (km/s)
/
Latitude / Longitude
Inclination (degrees)
Orbital Period (minutes)
Azimuth
Elevation
Range (km)
Doppler Factor

Next 0 passes for location: London (51.5072 / 0.1276)

Sorry there are no passes over London.